Weather History for KZZV - February, 2013

Change the Weather History Date:

Tuesday, February 19, 2013

  Actual Average Record
Temperature  
Mean Temperature 35 °F 33 °F  
Max Temperature 46 °F 42 °F 68 °F (1994)
Min Temperature 23 °F 24 °F -5 °F (1978)
Degree Days  
Heating Degree Days 30 32  
Month to date heating degree days 694 645  
Since 1 July heating degree days 3832 3912  
Cooling Degree Days 0 0  
Month to date cooling degree days 0 0  
Year to date cooling degree days 0 0  
Moisture  
Dew Point 27 °F    
Average Humidity 72    
Maximum Humidity 86    
Minimum Humidity 58    
Precipitation  
Precipitation 0.23 in 0.07 in - ()
Month to date precipitation 0.95 1.45  
Year to date precipitation 3.07 4.11  
Sea Level Pressure  
Sea Level Pressure 29.83 in    
Wind  
Wind Speed 16 mph (WSW)    
Max Wind Speed 28 mph    
Max Gust Speed 38 mph    
Visibility 8 miles    
Events Rain , Snow    
T = Trace of Precipitation, MM = Missing Value Source: NWS Daily Summary

Daily Weather History Graph

Daily Weather History Graph

Search for Another Location

Airport or City:

Trip Planner

Search our weather history database for the weather conditions in past years. The results will help you decide how hot, cold, wet, or windy it might be!

Date:

Astronomy

Feb. 19, 2013 Rise Set
Actual Time 7:14 AM EST 6:08 PM EST
Civil Twilight 6:47 AM EST 6:36 PM EST
Nautical Twilight 6:15 AM EST 7:07 PM EST
Astronomical Twilight 5:44 AM EST 7:38 PM EST
Moon 12:39 PM EST (2/19) 2:45 AM EST (2/19)
Length of Visible Light 11h 48m
Length of Day
10h 53m
Waxing Gibbous, 67% of the Moon is Illuminated
Feb 19
Waxing Gibbous
Feb 25
Full
Mar 4
Last Quarter
Mar 11
New
Mar 19
First Quarter

Hourly Weather History & Observations

Time (EST) Temp. Windchill Dew Point Humidity Pressure Visibility Wind Dir Wind Speed Gust Speed Precip Events Conditions
12:53 AM 45.0 °F 39.3 °F 30.0 °F 56% 29.83 in 10.0 mi South 11.5 mph 18.4 mph N/A   Overcast
1:53 AM 44.1 °F 36.2 °F 35.1 °F 71% 29.83 in 5.0 mi SW 18.4 mph 34.5 mph 0.02 in Rain Rain
2:24 AM 42.8 °F 36.2 °F 35.6 °F 76% 29.78 in 10.0 mi South 12.7 mph - 0.05 in Rain Light Rain
2:53 AM 43.0 °F 36.8 °F 36.0 °F 76% 29.78 in 9.0 mi South 11.5 mph 21.9 mph 0.07 in Rain Light Rain
3:16 AM 42.8 °F 35.1 °F 35.6 °F 76% 29.74 in 10.0 mi South 16.1 mph 27.6 mph 0.02 in Rain Light Rain
3:53 AM 41.0 °F 32.5 °F 36.0 °F 82% 29.74 in 8.0 mi South 17.3 mph 24.2 mph 0.04 in Rain Light Rain
4:19 AM 41.0 °F 33.1 °F 37.4 °F 87% 29.71 in 10.0 mi South 15.0 mph - 0.00 in Rain Light Rain
4:53 AM 41.0 °F 34.7 °F 37.0 °F 86% 29.71 in 10.0 mi South 10.4 mph - 0.01 in Rain Light Rain
5:53 AM 42.1 °F 34.2 °F 37.0 °F 82% 29.70 in 10.0 mi South 16.1 mph 24.2 mph 0.01 in   Overcast
6:53 AM 43.0 °F 34.8 °F 37.0 °F 80% 29.69 in 10.0 mi SSW 18.4 mph 27.6 mph N/A   Overcast
7:53 AM 43.0 °F 35.7 °F 37.9 °F 82% 29.69 in 10.0 mi SSW 15.0 mph 32.2 mph 0.01 in Rain Light Rain
8:33 AM 35.6 °F 25.2 °F 33.8 °F 93% 29.71 in 3.0 mi West 18.4 mph 32.2 mph 0.03 in Rain Light Rain
8:46 AM 35.6 °F 25.9 °F 33.8 °F 93% 29.72 in 8.0 mi West 16.1 mph 25.3 mph 0.04 in Snow Light Snow
8:53 AM 35.1 °F 24.8 °F 32.0 °F 89% 29.75 in 4.0 mi West 17.3 mph 24.2 mph 0.04 in Snow Light Snow
9:08 AM 33.8 °F 23.9 °F 32.0 °F 93% 29.74 in 1.8 mi West 15.0 mph - 0.01 in Snow Light Snow
9:17 AM 33.8 °F 24.8 °F 30.2 °F 87% 29.74 in 1.0 mi West 12.7 mph 20.7 mph 0.01 in Snow Light Snow
9:35 AM 33.8 °F 24.8 °F 30.2 °F 87% 29.75 in 2.0 mi West 12.7 mph - 0.02 in Snow Light Snow
9:43 AM 33.8 °F 23.2 °F 30.2 °F 87% 29.75 in 9.0 mi West 17.3 mph 24.2 mph 0.03 in   Overcast
9:53 AM 34.0 °F 22.7 °F 30.9 °F 89% 29.77 in 10.0 mi West 19.6 mph 33.4 mph 0.03 in   Overcast
10:08 AM 33.8 °F 21.6 °F 28.4 °F 81% 29.76 in 10.0 mi West 23.0 mph 34.5 mph N/A   Overcast
10:53 AM 34.0 °F 21.5 °F 27.0 °F 75% 29.78 in 10.0 mi West 24.2 mph 33.4 mph N/A   Overcast
11:53 AM 34.0 °F 21.5 °F 26.1 °F 73% 29.80 in 10.0 mi West 24.2 mph 34.5 mph N/A   Overcast
1:53 PM 32.0 °F 19.8 °F 24.1 °F 73% 29.82 in 6.0 mi West 20.7 mph 31.1 mph 0.00 in Snow Light Snow
2:53 PM 30.9 °F 20.2 °F 23.0 °F 72% 29.84 in 10.0 mi West 15.0 mph 19.6 mph 0.00 in   Overcast
3:53 PM 30.9 °F 18.4 °F 19.9 °F 64% 29.87 in 10.0 mi West 20.7 mph 27.6 mph 0.00 in   Overcast
4:53 PM 28.9 °F 18.2 °F 21.0 °F 72% 29.90 in 10.0 mi West 13.8 mph 26.5 mph N/A   Overcast
5:07 PM 28.4 °F 17.5 °F 21.2 °F 74% 29.88 in 6.0 mi West 13.8 mph 24.2 mph 0.00 in Snow Light Snow
5:30 PM 28.4 °F 17.5 °F 21.2 °F 74% 29.90 in 6.0 mi West 13.8 mph 25.3 mph 0.00 in Snow Light Snow
5:46 PM 28.4 °F 15.8 °F 17.6 °F 64% 29.91 in 9.0 mi West 18.4 mph 28.8 mph 0.00 in   Overcast
5:53 PM 28.9 °F 17.7 °F 18.0 °F 64% 29.93 in 10.0 mi West 15.0 mph 32.2 mph 0.00 in   Overcast
7:53 PM 27.0 °F 13.9 °F 17.1 °F 66% 29.99 in 10.0 mi West 18.4 mph 27.6 mph 0.00 in   Overcast
8:53 PM 26.1 °F 16.2 °F 17.1 °F 69% 30.01 in 10.0 mi West 10.4 mph 18.4 mph N/A   Overcast
9:45 PM 24.8 °F 11.9 °F 15.8 °F 69% 29.99 in 9.0 mi WNW 16.1 mph 25.3 mph 0.00 in Snow Light Snow
9:53 PM 25.0 °F 11.3 °F 17.1 °F 72% 30.03 in 6.0 mi WNW 18.4 mph 26.5 mph 0.00 in Snow Light Snow
10:22 PM 24.8 °F 10.7 °F 15.8 °F 69% 30.00 in 9.0 mi West 19.6 mph 29.9 mph 0.00 in   Overcast
10:53 PM 24.1 °F 13.1 °F 15.1 °F 69% 30.04 in 9.0 mi West 11.5 mph 20.7 mph 0.00 in   Overcast
11:23 PM 23.0 °F 9.2 °F 12.2 °F 63% 30.01 in 9.0 mi West 17.3 mph 32.2 mph 0.00 in   Overcast
11:53 PM 23.0 °F 10.1 °F 12.0 °F 63% 30.05 in 10.0 mi WNW 15.0 mph 31.1 mph 0.00 in   Overcast